Showing default

HULIANWANG DIGUI-15, 62975

Orbit data source: Space-Track

HULIANWANG DIGUI-15, 62975 is a payload satellite owned by Zhongguo Xingwang (CN) in LEO that was launched on Tue, 11 Feb 2025 UTC via a CHANG ZHENG 8A launch vehicle from the Wenchang Satellite Launch Center (WSC). Payload-class satellites include a variety of spacecraft equipped with specific instruments for various scientific and technological missions. These include communications satellites like Starlink; space stations such as the ISS; scientific satellites like the Hubble; Earth observation satellites from companies like Planet Labs, Umbra, and HawkEye 360; GPS; miniature CubeSats for education and research; and military/defense satellites.

Loading next visibility...
Identifier
62975, 2025-030E
Orbit
LEO
Country
Flag of CNCN / PRC
Related business
Manufacturer
CAST
Mission
Operational Civil Communications
Bus & Motor
GUOWANG C, Unknown motor
Mass
~800 kg wet, ~800 kg dry
Launch date (UTC)
2025-02-11 (10 months ago)
Launch vehicle
CHANG ZHENG 8A
Launch site
Wenchang Satellite Launch Center (WSC)
Object type
Payload
Rocket body
Debris
Shape & HBR
Box + 2 Pan, 2.1 m
Radar Cross Section
5.935 m², Large (>1 m²)

Expand to show TLE details & history
Last TLE update: 9 hours ago

TLE from 9 hours ago
0 HULIANWANG DIGUI-15
1 62975U 25030E   25343.16549172 -.00000078  00000-0  99164-4 0  9990
2 62975  50.0007 197.2934 0000757  13.5557 346.5335 13.29330871 40586
Epoch: 2025-12-09T03:58Z
TLE epoch observation values (Epoch: 2025-12-09T03:58:18.484Z)
Latitude
-0.00005°
Longitude
59.56226°
Altitude
1,149.24 km
Speed
7.28 km/s
True Right ascension
13h 09m 10s
True Declination
0° 00' 00"
Sunlit
Object was in daylight at epoch
Visualization orbit readout
Latitude
Unknown
Longitude
Unknown
Altitude
Unknown
Speed
Unknown
Apparent Right ascension
Unknown
Apparent Declination
Unknown
Sunlit
N/A
Visualization observer readout
Local Sidereal Time
11:08:29
Azimuth
Unknown
Elevation
Unknown
Doppler factor
Unknown
Orbital elements
Apogee altitude
1,150.563 km
Perigee altitude
1,149.424 km
Semi-major axis
7,528.13 km
Eccentricity
0.00008
Inclination
50.0007°
RAAN
197.2934°
Arg. of periapsis
13.5557°
True anomaly
346.53148°
Mean anomaly
346.5335°
Eccentric anomaly
346.53249°
Mean motion
3.32286 °/min
Orbital period
108.34 mins
BSTAR
0.000099164
Loading maneuver chart data...
Computing Atmospheric mass density...
Loading historical data...
Loading historical data...
Loading historical data...
Loading historical data...
Loading historical data...
Loading historical data...
Loading historical data...

Documentation

Showing up to 5 results
|